Regional Weather Roundup
Issued by NWS

Home | Current Version | Previous Version | Text Only | Print | Product List | Glossary Off
Versions: 1 2 3 4 5 6 7 8 9 10 11 12 13 14 15 16 17 18 19 20 21 22 23 24 25 26 27 28 29 30 31 32 33 34 35 36 37 38 39 40 41 42 43 44 45 46 47 48 49 50

000
ASUS43 KTOP 210308
RWRKS

WEATHER ROUNDUP FOR KANSAS
NATIONAL WEATHER SERVICE GOODLAND KS
1000 PM CDT FRI OCT 20 2017

NOTE:  "FAIR" INDICATES FEW OR NO CLOUDS BELOW 12,000 FEET WITH NO
SIGNIFICANT WEATHER AND/OR OBSTRUCTIONS TO VISIBILITY.

KSZ001>006-013>018-027>032-041>047-210400-
NORTHWEST KANSAS

CITY           SKY/WX    TMP DP  RH WIND       PRES   REMARKS
GOODLAND       CLEAR     60  46  59 S14       29.50F
HAYS           CLOUDY    69  59  70 S24G32    29.61F
HILL CITY      CLEAR     69  59  70 S26G43    29.57F
RUSSELL        CLOUDY    70  61  73 S31G43    29.62F
$$

KSZ061>065-074>080-084>089-210400-
SOUTHWEST KANSAS

CITY           SKY/WX    TMP DP  RH WIND       PRES   REMARKS
DODGE CITY     CLEAR     68  58  70 S25G36    29.66S
ELKHART          N/A     65  46  50 S13         N/A
GARDEN CITY    CLEAR     67  56  67 S18G28    29.61S
GREAT BEND     CLOUDY    69  60  73 S29G37    29.66S
LIBERAL        CLEAR     69  53  56 S24       29.66S
PRATT          CLEAR     68  59  73 S17G24    29.73S
$$

KSZ066>073-081>083-090>101-210400-
SOUTHEAST KANSAS

CITY           SKY/WX    TMP DP  RH WIND       PRES   REMARKS
CHANUTE        CLEAR     67  59  75 S17       29.88R
COFFEYVILLE    CLEAR     67  59  75 S13G23    29.89R
HUTCHINSON     PTCLDY    71  61  70 S22G33    29.74R
MEDICINE LODGE   N/A     71  60  68 S18G37    29.73S
NEWTON         CLEAR     70  60  70 S23G32    29.78R
PARSONS        CLEAR     68  58  70 S10G22    29.90R
WICHITA INTL   PTCLDY    71  62  73 S21G31    29.77S
WICHITA JABRA  MOCLDY    70  62  76 S20G29    29.78S
WICHITA MCCONL PTCLDY    71  60  67 S29G35    29.79R
WINFIELD       MOCLDY    71  62  73 S21       29.83R
$$

KSZ007>012-019>026-033>040-048>060-102>105-210400-
NORTHEAST KANSAS

CITY           SKY/WX    TMP DP  RH WIND       PRES   REMARKS
CONCORDIA      MOCLDY    69  57  65 S18G30    29.68F
EMPORIA        CLOUDY    69  57  65 S25G43    29.81R
LAWRENCE       CLOUDY    67  57  70 SE17      29.83F
MANHATTAN      CLOUDY    70  60  70 S18G31    29.74F
MARYSVILLE     PTCLDY    68  59  73 S18G25    29.74F
OLATHE IND     CLEAR     66  56  70 SE18G29   29.87R
OLATHE EXE     CLEAR     64  56  75 S15G23    29.87R
SALINA         CLEAR     73  59  61 S26G36    29.70S
TOPEKA BILLARD MOCLDY    70  59  68 SE21G29   29.80F
TOPEKA FORBES  PTCLDY    70  58  65 S20G31    29.80F
$$




USA.gov is the U.S. government's official web portal to all federal, state and local government web resources and services.